DELTA 1 DEB, 10769

Orbit data source: Space-Track

DELTA 1 DEB, 10769 is space debris in SSO originally from a launch on Thu, 29 Jul 1976 UTC launched from the Air Force Western Test Range (AFWTR). Debris objects in space refer to the collection of defunct objects orbiting the Earth. Examples of debris include non-operational satellites, rocket bodies, and fragments generated from explosions, collisions, or faulty payload assembly.

Loading next visibility...
Identifier
10769, 1976-077BS
Orbit
SSO
Country
Flag of USUS
Related business
Manufacturer
Unknown
Mission
Spacecraft
Bus & Motor
Unknown
Mass
Unknown
Launch date (UTC)
1976-07-29 (49 years ago)
Launch vehicle
Unknown
Launch site
Air Force Western Test Range (AFWTR)
Object type
Payload
Rocket body
Debris
Shape & HBR
Unknown shape, 0.1 m
Radar Cross Section
Small (<0.1 m²)

Expand to show TLE details & history
Last TLE update: 1 day ago

TLE from 1 day ago
0 DELTA 1 DEB
1 10769U 76077BS  25291.88381944 -.00000026  00000-0  12145-3 0  9999
2 10769 101.7991 258.4967 0095291 225.0376 163.1677 12.52742655249235
Epoch: 2025-10-18T21:12Z
TLE epoch observation values (Epoch: 2025-10-18T21:12:41.999Z)
Latitude
27.90245°
Longitude
-93.6065°
Altitude
1,527.677 km
Speed
7.072 km/s
True Right ascension
16h 48m 42s
True Declination
27° 46' 27"
Sunlit
Object was in daylight at epoch
Visualization orbit readout
Latitude
Unknown
Longitude
Unknown
Altitude
Unknown
Speed
Unknown
Apparent Right ascension
Unknown
Apparent Declination
Unknown
Sunlit
N/A
Visualization observer readout
Local Sidereal Time
21:38:57
Azimuth
Unknown
Elevation
Unknown
Doppler factor
Unknown
Orbital elements
Apogee altitude
1,525.191 km
Perigee altitude
1,375.989 km
Semi-major axis
7,828.727 km
Eccentricity
0.00953
Inclination
101.7991°
RAAN
258.4967°
Arg. of periapsis
225.0376°
True anomaly
163.48033°
Mean anomaly
163.1677°
Eccentric anomaly
163.32437°
Mean motion
3.13333 °/min
Orbital period
114.89 mins
BSTAR
0.00012145
Loading maneuver chart data...
Computing Atmospheric mass density...
Loading historical data...
Loading historical data...
Loading historical data...
Loading historical data...
Loading historical data...
Loading historical data...
Loading historical data...

Documentation

Showing up to 5 results
|